Regional Weather Roundup
Issued by NWS

Home | Current Version | Previous Version | Text Only | Print | Product List | Glossary Off
Versions: 1 2 3 4 5 6 7 8 9 10 11 12 13 14 15 16 17 18 19 20 21 22 23 24 25 26 27 28 29 30 31 32 33 34 35 36 37 38 39 40 41 42 43 44 45 46 47 48 49 50

000
ASUS43 KLMK 300002
RWRKY
KENTUCKY REGIONAL WEATHER ROUNDUP
NATIONAL WEATHER SERVICE LOUISVILLE KY
800 PM EDT MON SEP 29 2014

NOTE "FAIR" INDICATES FEW OR NO CLOUDS BELOW 12,000 FEET
WITH NO SIGNIFICANT WEATHER AND/OR OBSTRUCTIONS TO VISIBILITY.

KYZ001>023-026-027-061>063-070>075-300100-
WESTERN AND SOUTH CENTRAL KENTUCKY

CITY           SKY/WX    TMP DP  RH WIND       PRES   REMARKS
PADUCAH        CLEAR     69  59  70 CALM      29.93S
HENDERSON      NOT AVBL
OWENSBORO      CLEAR     79  55  43 NE3       29.93F
HOPKINSVILLE   CLEAR     77  57  49 N3        29.94R
BOWLING GREEN  CLEAR     79  56  45 CALM      29.94R
GLASGOW        PTCLDY    71  59  65 CALM      29.94S
$$

KYZ024-025-028>034-038-045-046-053-300100-
NORTH CENTRAL KENTUCKY

CITY           SKY/WX    TMP DP  RH WIND       PRES   REMARKS
LOUISVILLE/SDF CLEAR     77  53  43 N6        29.93S
LOUISVILLE/LOU CLEAR     75  54  47 NW3       29.94S
FORT KNOX      CLEAR     66  57  71 NW5       29.93F
$$

KYZ035>037-039>044-047>052-055>060-089>105-300100-
NORTHEAST KENTUCKY

CITY           SKY/WX    TMP DP  RH WIND       PRES   REMARKS
LEXINGTON      CLEAR     75  53  46 NW3       29.95S
COVINGTON      CLEAR     72  52  49 W3        29.94S
FRANKFORT      CLEAR     68  55  63 CALM      29.93F
$$

KYZ054-064>069-076>088-106>120-300100-
SOUTHEAST KENTUCKY

CITY           SKY/WX    TMP DP  RH WIND       PRES   REMARKS
JACKSON        CLEAR     73  61  65 CALM      29.96S
LONDON         PTCLDY    73  62  68 CALM      29.97R
SOMERSET       NOT AVBL
MIDDLESBORO    MOCLDY    68  63  82 CALM      29.97S
MONTICELLO     CLEAR     69  61  76 CALM      29.97R
$$




USA.gov is the U.S. government's official web portal to all federal, state and local government web resources and services.